Change the Weather History Date:

Thursday, October 3, 2013

  Actual Average Record
Temperature  
Mean Temperature 84 °F -  
Max Temperature 95 °F 85 °F 96 °F (2000)
Min Temperature 72 °F 64 °F 55 °F (2003)
Cooling Degree Days 18    
Growing Degree Days 34 (Base 50)    
Moisture  
Dew Point 69 °F    
Average Humidity 67    
Maximum Humidity 93    
Minimum Humidity 37    
Precipitation  
Precipitation 0.00 in - - ()
Sea Level Pressure  
Sea Level Pressure 29.85 in    
Wind  
Wind Speed 7 mph (SE)    
Max Wind Speed 14 mph    
Max Gust Speed 22 mph    
Visibility 10 miles    
Events      
Averages and records for this station are not official NWS values.
T = Trace of Precipitation, MM = Missing Value Source: NWS Daily Summary

Daily Weather History Graph

Daily Weather History Graph

Search for Another Location

Airport or City:

Trip Planner

Search our weather history database for the weather conditions in past years. The results will help you decide how hot, cold, wet, or windy it might be!

Date:

Astronomy

Oct. 03, 2013 Rise Set
Actual Time 7:31 AM CDT 7:20 PM CDT
Civil Twilight 7:07 AM CDT 7:43 PM CDT
Nautical Twilight 6:40 AM CDT 8:10 PM CDT
Astronomical Twilight 6:12 AM CDT 8:38 PM CDT
Moon 6:10 AM CDT 6:27 PM CDT
Length of Visible Light 12h 36m
Length of Day
11h 49m
Waning Crescent, 2% of the Moon is Illuminated
Oct 3
Waning Crescent
Oct 4
New
Oct 11
First Quarter
Oct 18
Full
Oct 26
Last Quarter

Hourly Weather History & Observations

Time (CDT) Temp. Heat Index Dew Point Humidity Pressure Visibility Wind Dir Wind Speed Gust Speed Precip Events Conditions
12:53 AM 79.0 °F - 73.0 °F 82% 29.87 in 10.0 mi SE 5.8 mph 16.1 mph N/A   Clear
1:53 AM 77.0 °F - 72.0 °F 84% 29.87 in 10.0 mi SSE 6.9 mph - N/A   Clear
2:53 AM 75.9 °F - 72.0 °F 87% 29.85 in 10.0 mi SSE 5.8 mph - N/A   Clear
3:53 AM 75.0 °F - 71.1 °F 87% 29.85 in 10.0 mi SSE 3.5 mph - N/A   Clear
4:53 AM 73.0 °F - 71.1 °F 93% 29.85 in 10.0 mi ESE 3.5 mph - N/A   Clear
5:53 AM 72.0 °F - 70.0 °F 93% 29.85 in 10.0 mi ESE 3.5 mph - N/A   Clear
6:53 AM 72.0 °F - 70.0 °F 93% 29.86 in 10.0 mi East 4.6 mph - N/A   Clear
7:53 AM 72.0 °F - 70.0 °F 93% 29.87 in 7.0 mi East 3.5 mph - N/A   Clear
8:53 AM 75.9 °F - 72.0 °F 87% 29.89 in 10.0 mi ESE 6.9 mph - N/A   Clear
9:15 AM 77.0 °F - 71.6 °F 83% 29.92 in 10.0 mi SE 8.1 mph - N/A   Partly Cloudy
9:53 AM 80.1 °F 83.6 °F 71.1 °F 74% 29.91 in 10.0 mi SSE 10.4 mph - N/A   Clear
10:53 AM 84.0 °F 87.8 °F 69.1 °F 61% 29.91 in 10.0 mi SSE 10.4 mph - N/A   Clear
11:53 AM 88.0 °F 91.4 °F 68.0 °F 51% 29.90 in 10.0 mi South 8.1 mph 17.3 mph N/A   Clear
12:53 PM 90.0 °F 92.4 °F 66.0 °F 45% 29.87 in 10.0 mi SSE 6.9 mph 18.4 mph N/A   Clear
1:53 PM 93.0 °F 95.9 °F 66.0 °F 41% 29.84 in 10.0 mi SE 11.5 mph 21.9 mph N/A   Clear
2:53 PM 93.0 °F 95.9 °F 66.0 °F 41% 29.81 in 10.0 mi Variable 6.9 mph 16.1 mph N/A   Clear
3:53 PM 95.0 °F 97.4 °F 64.9 °F 37% 29.80 in 10.0 mi SSE 13.8 mph 19.6 mph N/A   Clear
4:53 PM 93.9 °F 95.6 °F 64.0 °F 37% 29.79 in 10.0 mi South 11.5 mph 16.1 mph N/A   Clear
5:53 PM 93.0 °F 94.6 °F 64.0 °F 38% 29.78 in 10.0 mi South 13.8 mph 18.4 mph N/A   Clear
6:53 PM 90.0 °F 91.7 °F 64.9 °F 43% 29.78 in 10.0 mi SSE 10.4 mph 19.6 mph N/A   Clear
7:53 PM 86.0 °F 88.2 °F 66.0 °F 51% 29.79 in 10.0 mi SSE 4.6 mph - N/A   Clear
8:53 PM 82.9 °F 85.4 °F 66.9 °F 58% 29.81 in 10.0 mi SE 5.8 mph - N/A   Clear
9:53 PM 82.9 °F 87.0 °F 70.0 °F 65% 29.84 in 10.0 mi SSE 8.1 mph 17.3 mph N/A   Scattered Clouds
11:53 PM 79.0 °F - 70.0 °F 74% 29.86 in 10.0 mi SE 8.1 mph - N/A   Clear